Year,Month,Day,Hour,Minute,Value (Times are PST for temperature in C)
2013,05,03,00,00,8.70
2013,05,03,00,01,8.60
2013,05,03,00,02,8.60
2013,05,03,00,03,8.60
2013,05,03,00,04,8.50
2013,05,03,00,05,8.50
2013,05,03,00,06,8.50
2013,05,03,00,07,8.40
2013,05,03,00,08,8.40
2013,05,03,00,09,8.30
2013,05,03,00,10,8.30
2013,05,03,00,11,8.30
2013,05,03,00,12,8.30
2013,05,03,00,13,8.30
2013,05,03,00,14,8.20
2013,05,03,00,15,8.20
2013,05,03,00,16,8.20
2013,05,03,00,17,8.20
2013,05,03,00,18,8.20
2013,05,03,00,19,8.20
2013,05,03,00,20,8.10
2013,05,03,00,21,8.10
2013,05,03,00,22,8.10
2013,05,03,00,23,8.10
2013,05,03,00,24,8.10
2013,05,03,00,25,8.10
2013,05,03,00,26,8.10
2013,05,03,00,27,8.10
2013,05,03,00,28,8.00
2013,05,03,00,29,8.00
2013,05,03,00,30,8.00
2013,05,03,00,31,8.00
2013,05,03,00,32,8.00
2013,05,03,00,33,8.00
2013,05,03,00,34,8.00
2013,05,03,00,35,8.00
2013,05,03,00,36,7.90
2013,05,03,00,37,7.90
2013,05,03,00,38,7.90
2013,05,03,00,39,7.90
2013,05,03,00,40,7.90
2013,05,03,00,41,7.90
2013,05,03,00,42,7.80
2013,05,03,00,43,7.80
2013,05,03,00,44,7.80
2013,05,03,00,45,7.80
2013,05,03,00,46,7.80
2013,05,03,00,47,7.80
2013,05,03,00,48,7.80
2013,05,03,00,49,7.80
2013,05,03,00,50,7.80
2013,05,03,00,51,7.80
2013,05,03,00,52,7.80
2013,05,03,00,53,7.80
2013,05,03,00,54,7.80
2013,05,03,00,55,7.70
2013,05,03,00,56,7.70
2013,05,03,00,57,7.70
2013,05,03,00,58,7.70
2013,05,03,00,59,7.70
2013,05,03,01,00,7.60
2013,05,03,01,01,7.60
2013,05,03,01,02,7.60
2013,05,03,01,03,7.60
2013,05,03,01,04,7.50
2013,05,03,01,05,7.50
2013,05,03,01,06,7.50
2013,05,03,01,07,7.50
2013,05,03,01,08,7.50
2013,05,03,01,09,7.40
2013,05,03,01,10,7.40
2013,05,03,01,11,7.40
2013,05,03,01,12,7.40
2013,05,03,01,13,7.40
2013,05,03,01,14,7.40
2013,05,03,01,15,7.40
2013,05,03,01,16,7.40
2013,05,03,01,17,7.40
2013,05,03,01,18,7.40
2013,05,03,01,19,7.40
2013,05,03,01,20,7.30
2013,05,03,01,21,7.30
2013,05,03,01,22,7.30
2013,05,03,01,23,7.30
2013,05,03,01,24,7.30
2013,05,03,01,25,7.30
2013,05,03,01,26,7.30
2013,05,03,01,27,7.30
2013,05,03,01,28,7.30
2013,05,03,01,29,7.20
2013,05,03,01,30,7.20
2013,05,03,01,31,7.20
2013,05,03,01,32,7.20
2013,05,03,01,33,7.10
2013,05,03,01,34,7.10
2013,05,03,01,35,7.10
2013,05,03,01,36,7.00
2013,05,03,01,37,7.00
2013,05,03,01,38,7.00
2013,05,03,01,39,7.00
2013,05,03,01,40,7.00
2013,05,03,01,41,6.90
2013,05,03,01,42,6.90
2013,05,03,01,43,6.90
2013,05,03,01,44,6.90
2013,05,03,01,45,6.90
2013,05,03,01,46,6.90
2013,05,03,01,47,6.90
2013,05,03,01,48,6.90
2013,05,03,01,49,6.90
2013,05,03,01,50,6.80
2013,05,03,01,51,6.80
2013,05,03,01,52,6.80
2013,05,03,01,53,6.80
2013,05,03,01,54,6.80
2013,05,03,01,55,6.80
2013,05,03,01,56,6.80
2013,05,03,01,57,6.80
2013,05,03,01,58,6.80
2013,05,03,01,59,6.80
2013,05,03,02,00,6.80
2013,05,03,02,01,6.80
2013,05,03,02,02,6.80
2013,05,03,02,03,6.80
2013,05,03,02,04,6.80
2013,05,03,02,05,6.80
2013,05,03,02,06,6.80
2013,05,03,02,07,6.80
2013,05,03,02,08,6.80
2013,05,03,02,09,6.80
2013,05,03,02,10,6.80
2013,05,03,02,11,6.80
2013,05,03,02,12,6.80
2013,05,03,02,13,6.80
2013,05,03,02,14,6.80
2013,05,03,02,15,6.80
2013,05,03,02,16,6.80
2013,05,03,02,17,6.80
2013,05,03,02,18,6.70
2013,05,03,02,19,6.70
2013,05,03,02,20,6.70
2013,05,03,02,21,6.70
2013,05,03,02,22,6.60
2013,05,03,02,23,6.60
2013,05,03,02,24,6.60
2013,05,03,02,25,6.60
2013,05,03,02,26,6.60
2013,05,03,02,27,6.60
2013,05,03,02,28,6.60
2013,05,03,02,29,6.60
2013,05,03,02,30,6.60
2013,05,03,02,31,6.60
2013,05,03,02,32,6.50
2013,05,03,02,33,6.40
2013,05,03,02,34,6.40
2013,05,03,02,35,6.40
2013,05,03,02,36,6.40
2013,05,03,02,37,6.40
2013,05,03,02,38,6.40
2013,05,03,02,39,6.40
2013,05,03,02,40,6.30
2013,05,03,02,41,6.30
2013,05,03,02,42,6.30
2013,05,03,02,43,6.30
2013,05,03,02,44,6.30
2013,05,03,02,45,6.30
2013,05,03,02,46,6.20
2013,05,03,02,47,6.20
2013,05,03,02,48,6.20
2013,05,03,02,49,6.20
2013,05,03,02,50,6.20
2013,05,03,02,51,6.20
2013,05,03,02,52,6.30
2013,05,03,02,53,6.30
2013,05,03,02,54,6.30
2013,05,03,02,55,6.30
2013,05,03,02,56,6.20
2013,05,03,02,57,6.20
2013,05,03,02,58,6.20
2013,05,03,02,59,6.20
2013,05,03,03,00,6.20
2013,05,03,03,01,6.20
2013,05,03,03,02,6.20
2013,05,03,03,03,6.20
2013,05,03,03,04,6.20
2013,05,03,03,05,6.20
2013,05,03,03,06,6.20
2013,05,03,03,07,6.20
2013,05,03,03,08,6.20
2013,05,03,03,09,6.10
2013,05,03,03,10,6.10
2013,05,03,03,11,6.10
2013,05,03,03,12,6.10
2013,05,03,03,13,6.10
2013,05,03,03,14,6.10
2013,05,03,03,15,6.00
2013,05,03,03,16,6.00
2013,05,03,03,17,6.00
2013,05,03,03,18,6.00
2013,05,03,03,19,6.00
2013,05,03,03,20,6.00
2013,05,03,03,21,6.00
2013,05,03,03,22,6.00
2013,05,03,03,23,6.00
2013,05,03,03,24,6.00
2013,05,03,03,25,6.00
2013,05,03,03,26,6.00
2013,05,03,03,27,6.00
2013,05,03,03,28,6.00
2013,05,03,03,29,6.00
2013,05,03,03,30,6.00
2013,05,03,03,31,6.00
2013,05,03,03,32,6.00
2013,05,03,03,33,6.00
2013,05,03,03,34,6.00
2013,05,03,03,35,5.90
2013,05,03,03,36,5.90
2013,05,03,03,37,5.90
2013,05,03,03,38,5.90
2013,05,03,03,39,5.90
2013,05,03,03,40,5.90
2013,05,03,03,41,5.90
2013,05,03,03,42,5.90
2013,05,03,03,43,5.90
2013,05,03,03,44,5.90
2013,05,03,03,45,5.90
2013,05,03,03,46,5.90
2013,05,03,03,47,5.90
2013,05,03,03,48,5.90
2013,05,03,03,49,5.90
2013,05,03,03,50,5.90
2013,05,03,03,51,5.90
2013,05,03,03,52,5.90
2013,05,03,03,53,5.90
2013,05,03,03,54,5.80
2013,05,03,03,55,5.80
2013,05,03,03,56,5.80
2013,05,03,03,57,5.80
2013,05,03,03,58,5.70
2013,05,03,03,59,5.70
2013,05,03,04,00,5.70
2013,05,03,04,01,5.70
2013,05,03,04,02,5.70
2013,05,03,04,03,5.70
2013,05,03,04,04,5.70
2013,05,03,04,05,5.70
2013,05,03,04,06,5.70
2013,05,03,04,07,5.70
2013,05,03,04,08,5.70
2013,05,03,04,09,5.70
2013,05,03,04,10,5.70
2013,05,03,04,11,5.70
2013,05,03,04,12,5.70
2013,05,03,04,13,5.70
2013,05,03,04,14,5.70
2013,05,03,04,15,5.70
2013,05,03,04,16,5.70
2013,05,03,04,17,5.70
2013,05,03,04,18,5.70
2013,05,03,04,19,5.70
2013,05,03,04,20,5.70
2013,05,03,04,21,5.70
2013,05,03,04,22,5.70
2013,05,03,04,23,5.60
2013,05,03,04,24,5.60
2013,05,03,04,25,5.60
2013,05,03,04,26,5.60
2013,05,03,04,27,5.50
2013,05,03,04,28,5.50
2013,05,03,04,29,5.50
2013,05,03,04,30,5.50
2013,05,03,04,31,5.40
2013,05,03,04,32,5.40
2013,05,03,04,33,5.40
2013,05,03,04,34,5.30
2013,05,03,04,35,5.30
2013,05,03,04,36,5.30
2013,05,03,04,37,5.30
2013,05,03,04,38,5.30
2013,05,03,04,39,5.30
2013,05,03,04,40,5.30
2013,05,03,04,41,5.30
2013,05,03,04,42,5.30
2013,05,03,04,43,5.30
2013,05,03,04,44,5.30
2013,05,03,04,45,5.30
2013,05,03,04,46,5.30
2013,05,03,04,47,5.30
2013,05,03,04,48,5.30
2013,05,03,04,49,5.30
2013,05,03,04,50,5.30
2013,05,03,04,51,5.30
2013,05,03,04,52,5.30
2013,05,03,04,53,5.30
2013,05,03,04,54,5.30
2013,05,03,04,55,5.20
2013,05,03,04,56,5.20
2013,05,03,04,57,5.20
2013,05,03,04,58,5.20
2013,05,03,04,59,5.20
2013,05,03,05,00,5.20
2013,05,03,05,01,5.20
2013,05,03,05,02,5.20
2013,05,03,05,03,5.20
2013,05,03,05,04,5.20
2013,05,03,05,05,5.20
2013,05,03,05,06,5.20
2013,05,03,05,07,5.20
2013,05,03,05,08,5.10
2013,05,03,05,09,5.10
2013,05,03,05,10,5.10
2013,05,03,05,11,5.10
2013,05,03,05,12,5.10
2013,05,03,05,13,5.10
2013,05,03,05,14,5.10
2013,05,03,05,15,5.10
2013,05,03,05,16,5.10
2013,05,03,05,17,5.10
2013,05,03,05,18,5.10
2013,05,03,05,19,4.90
2013,05,03,05,20,4.90
2013,05,03,05,21,4.90
2013,05,03,05,22,4.90
2013,05,03,05,23,4.90
2013,05,03,05,24,4.90
2013,05,03,05,25,4.90
2013,05,03,05,26,4.90
2013,05,03,05,27,4.90
2013,05,03,05,28,4.90
2013,05,03,05,29,4.90
2013,05,03,05,30,4.90
2013,05,03,05,31,4.80
2013,05,03,05,32,4.90
2013,05,03,05,33,4.90
2013,05,03,05,34,4.90
2013,05,03,05,35,4.90
2013,05,03,05,36,4.90
2013,05,03,05,37,4.90
2013,05,03,05,38,4.90
2013,05,03,05,39,4.90
2013,05,03,05,40,4.90
2013,05,03,05,41,4.90
2013,05,03,05,42,4.90
2013,05,03,05,43,4.90
2013,05,03,05,44,5.00
2013,05,03,05,45,5.00
2013,05,03,05,46,5.00
2013,05,03,05,47,4.90
2013,05,03,05,48,4.90
2013,05,03,05,49,4.90
2013,05,03,05,50,4.90
2013,05,03,05,51,4.90
2013,05,03,05,52,4.90
2013,05,03,05,53,4.90
2013,05,03,05,54,4.90
2013,05,03,05,55,4.80
2013,05,03,05,56,4.80
2013,05,03,05,57,4.80
2013,05,03,05,58,4.80
2013,05,03,05,59,4.80
2013,05,03,06,00,4.80
2013,05,03,06,01,4.80
2013,05,03,06,02,4.70
2013,05,03,06,03,4.70
2013,05,03,06,04,4.70
2013,05,03,06,05,4.70
2013,05,03,06,06,4.70
2013,05,03,06,07,4.70
2013,05,03,06,08,4.60
2013,05,03,06,09,4.60
2013,05,03,06,10,4.60
2013,05,03,06,11,4.60
2013,05,03,06,12,4.60
2013,05,03,06,13,4.70
2013,05,03,06,14,4.70
2013,05,03,06,15,4.70
2013,05,03,06,16,4.70
2013,05,03,06,17,4.80
2013,05,03,06,18,4.80
2013,05,03,06,19,4.80
2013,05,03,06,20,4.80
2013,05,03,06,21,4.80
2013,05,03,06,22,4.90
2013,05,03,06,23,4.90
2013,05,03,06,24,4.90
2013,05,03,06,25,4.90
2013,05,03,06,26,4.90
2013,05,03,06,27,5.00
2013,05,03,06,28,5.10
2013,05,03,06,29,5.10
2013,05,03,06,30,5.10
2013,05,03,06,31,5.20
2013,05,03,06,32,5.30
2013,05,03,06,33,5.30
2013,05,03,06,34,5.40
2013,05,03,06,35,5.40
2013,05,03,06,36,5.40
2013,05,03,06,37,5.50
2013,05,03,06,38,5.50
2013,05,03,06,39,5.60
2013,05,03,06,40,5.60
2013,05,03,06,41,5.60
2013,05,03,06,42,5.70
2013,05,03,06,43,5.60
2013,05,03,06,44,5.60
2013,05,03,06,45,5.60
2013,05,03,06,46,5.60
2013,05,03,06,47,5.70
2013,05,03,06,48,5.70
2013,05,03,06,49,5.70
2013,05,03,06,50,5.80
2013,05,03,06,51,5.90
2013,05,03,06,52,5.90
2013,05,03,06,53,6.00
2013,05,03,06,54,6.10
2013,05,03,06,55,6.10
2013,05,03,06,56,6.20
2013,05,03,06,57,6.20
2013,05,03,06,58,6.20
2013,05,03,06,59,6.20
2013,05,03,07,00,6.30
2013,05,03,07,01,6.30
2013,05,03,07,02,6.40
2013,05,03,07,03,6.40
2013,05,03,07,04,6.40
2013,05,03,07,05,6.40
2013,05,03,07,06,6.50
2013,05,03,07,07,6.60
2013,05,03,07,08,6.70
2013,05,03,07,09,6.70
2013,05,03,07,10,6.80
2013,05,03,07,11,6.80
2013,05,03,07,12,6.80
2013,05,03,07,13,6.90
2013,05,03,07,14,6.90
2013,05,03,07,15,7.00
2013,05,03,07,16,7.10
2013,05,03,07,17,7.20
2013,05,03,07,18,7.20
2013,05,03,07,19,7.30
2013,05,03,07,20,7.30
2013,05,03,07,21,7.30
2013,05,03,07,22,7.30
2013,05,03,07,23,7.40
2013,05,03,07,24,7.40
2013,05,03,07,25,7.40
2013,05,03,07,26,7.50
2013,05,03,07,27,7.50
2013,05,03,07,28,7.60
2013,05,03,07,29,7.60
2013,05,03,07,30,7.70
2013,05,03,07,31,7.80
2013,05,03,07,32,7.80
2013,05,03,07,33,7.80
2013,05,03,07,34,7.90
2013,05,03,07,35,8.00
2013,05,03,07,36,8.00
2013,05,03,07,37,8.10
2013,05,03,07,38,8.20
2013,05,03,07,39,8.30
2013,05,03,07,40,8.40
2013,05,03,07,41,8.50
2013,05,03,07,42,8.60
2013,05,03,07,43,8.70
2013,05,03,07,44,8.90
2013,05,03,07,45,8.90
2013,05,03,07,46,9.00
2013,05,03,07,47,9.10
2013,05,03,07,48,9.20
2013,05,03,07,49,9.30
2013,05,03,07,50,9.40
2013,05,03,07,51,9.40
2013,05,03,07,52,9.50
2013,05,03,07,53,9.60
2013,05,03,07,54,9.70
2013,05,03,07,55,9.70
2013,05,03,07,56,9.80
2013,05,03,07,57,9.80
2013,05,03,07,58,9.90
2013,05,03,07,59,9.90
2013,05,03,08,00,10.00
2013,05,03,08,01,10.10
2013,05,03,08,02,10.10
2013,05,03,08,03,10.20
2013,05,03,08,04,10.20
2013,05,03,08,05,10.30
2013,05,03,08,06,10.40
2013,05,03,08,07,10.40
2013,05,03,08,08,10.40
2013,05,03,08,09,10.50
2013,05,03,08,10,10.60
2013,05,03,08,11,10.60
2013,05,03,08,12,10.70
2013,05,03,08,13,10.80
2013,05,03,08,14,10.90
2013,05,03,08,15,10.90
2013,05,03,08,16,11.00
2013,05,03,08,17,11.20
2013,05,03,08,18,11.30
2013,05,03,08,19,11.50
2013,05,03,08,20,11.60
2013,05,03,08,21,11.80
2013,05,03,08,22,11.90
2013,05,03,08,23,12.00
2013,05,03,08,24,12.10
2013,05,03,08,25,12.20
2013,05,03,08,26,12.30
2013,05,03,08,27,12.50
2013,05,03,08,28,12.50
2013,05,03,08,29,12.60
2013,05,03,08,30,12.60
2013,05,03,08,31,12.60
2013,05,03,08,32,12.70
2013,05,03,08,33,12.70
2013,05,03,08,34,12.60
2013,05,03,08,35,12.60
2013,05,03,08,36,12.70
2013,05,03,08,37,12.80
2013,05,03,08,38,12.80
2013,05,03,08,39,13.00
2013,05,03,08,40,13.10
2013,05,03,08,41,13.10
2013,05,03,08,42,13.30
2013,05,03,08,43,13.30
2013,05,03,08,44,13.40
2013,05,03,08,45,13.50
2013,05,03,08,46,13.60
2013,05,03,08,47,13.70
2013,05,03,08,48,13.70
2013,05,03,08,49,13.70
2013,05,03,08,50,13.80
2013,05,03,08,51,13.70
2013,05,03,08,52,13.70
2013,05,03,08,53,13.70
2013,05,03,08,54,13.80
2013,05,03,08,55,13.90
2013,05,03,08,56,13.90
2013,05,03,08,57,13.90
2013,05,03,08,58,13.90
2013,05,03,08,59,13.90
2013,05,03,09,00,13.80
2013,05,03,09,01,13.80
2013,05,03,09,02,13.80
2013,05,03,09,03,13.80
2013,05,03,09,04,13.80
2013,05,03,09,05,13.80
2013,05,03,09,06,13.90
2013,05,03,09,07,13.90
2013,05,03,09,08,14.00
2013,05,03,09,09,14.00
2013,05,03,09,10,14.10
2013,05,03,09,11,14.20
2013,05,03,09,12,14.20
2013,05,03,09,13,14.30
2013,05,03,09,14,14.40
2013,05,03,09,15,14.40
2013,05,03,09,16,14.50
2013,05,03,09,17,14.60
2013,05,03,09,18,14.50
2013,05,03,09,19,14.50
2013,05,03,09,20,14.50
2013,05,03,09,21,14.40
2013,05,03,09,22,14.50
2013,05,03,09,23,14.50
2013,05,03,09,24,14.60
2013,05,03,09,25,14.70
2013,05,03,09,26,14.80
2013,05,03,09,27,14.90
2013,05,03,09,28,14.90
2013,05,03,09,29,15.00
2013,05,03,09,30,15.00
2013,05,03,09,31,15.10
2013,05,03,09,32,15.20
2013,05,03,09,33,15.10
2013,05,03,09,34,15.10
2013,05,03,09,35,15.20
2013,05,03,09,36,15.20
2013,05,03,09,37,15.20
2013,05,03,09,38,15.10
2013,05,03,09,39,15.10
2013,05,03,09,40,15.00
2013,05,03,09,41,14.90
2013,05,03,09,42,14.80
2013,05,03,09,43,14.70
2013,05,03,09,44,14.70
2013,05,03,09,45,14.80
2013,05,03,09,46,14.80
2013,05,03,09,47,14.90
2013,05,03,09,48,14.90
2013,05,03,09,49,14.90
2013,05,03,09,50,14.90
2013,05,03,09,51,15.00
2013,05,03,09,52,15.00
2013,05,03,09,53,15.00
2013,05,03,09,54,15.00
2013,05,03,09,55,15.00
2013,05,03,09,56,15.00
2013,05,03,09,57,15.00
2013,05,03,09,58,15.10
2013,05,03,09,59,15.20
2013,05,03,10,00,15.20
2013,05,03,10,01,15.10
2013,05,03,10,02,15.10
2013,05,03,10,03,15.10
2013,05,03,10,04,15.00
2013,05,03,10,05,15.10
2013,05,03,10,06,15.10
2013,05,03,10,07,15.20
2013,05,03,10,08,15.20
2013,05,03,10,09,15.10
2013,05,03,10,10,15.20
2013,05,03,10,11,15.30
2013,05,03,10,12,15.30
2013,05,03,10,13,15.30
2013,05,03,10,14,15.30
2013,05,03,10,15,15.30
2013,05,03,10,16,15.30
2013,05,03,10,17,15.40
2013,05,03,10,18,15.50
2013,05,03,10,19,15.50
2013,05,03,10,20,15.60
2013,05,03,10,21,15.60
2013,05,03,10,22,15.70
2013,05,03,10,23,15.70
2013,05,03,10,24,15.70
2013,05,03,10,25,15.70
2013,05,03,10,26,15.70
2013,05,03,10,27,15.60
2013,05,03,10,28,15.60
2013,05,03,10,29,15.70
2013,05,03,10,30,15.80
2013,05,03,10,31,15.80
2013,05,03,10,32,15.80
2013,05,03,10,33,15.90
2013,05,03,10,34,16.10
2013,05,03,10,35,16.20
2013,05,03,10,36,16.20
2013,05,03,10,37,16.20
2013,05,03,10,38,16.30
2013,05,03,10,39,16.40
2013,05,03,10,40,16.40
2013,05,03,10,41,16.50
2013,05,03,10,42,16.60
2013,05,03,10,43,16.50
2013,05,03,10,44,16.40
2013,05,03,10,45,16.40
2013,05,03,10,46,16.40
2013,05,03,10,47,16.40
2013,05,03,10,48,16.40
2013,05,03,10,49,16.40
2013,05,03,10,50,16.40
2013,05,03,10,51,16.40
2013,05,03,10,52,16.40
2013,05,03,10,53,16.40
2013,05,03,10,54,16.40
2013,05,03,10,55,16.40
2013,05,03,10,56,16.30
2013,05,03,10,57,16.30
2013,05,03,10,58,16.40
2013,05,03,10,59,16.40
2013,05,03,11,00,16.40
2013,05,03,11,01,16.60
2013,05,03,11,02,16.70
2013,05,03,11,03,16.70
2013,05,03,11,04,16.70
2013,05,03,11,05,16.70
2013,05,03,11,06,16.80
2013,05,03,11,07,16.90
2013,05,03,11,08,17.00
2013,05,03,11,09,17.00
2013,05,03,11,10,17.10
2013,05,03,11,11,17.00
2013,05,03,11,12,16.90
2013,05,03,11,13,16.90
2013,05,03,11,14,16.80
2013,05,03,11,15,16.90
2013,05,03,11,16,17.00
2013,05,03,11,17,17.10
2013,05,03,11,18,17.10
2013,05,03,11,19,17.20
2013,05,03,11,20,17.30
2013,05,03,11,21,17.20
2013,05,03,11,22,17.30
2013,05,03,11,23,17.30
2013,05,03,11,24,17.30
2013,05,03,11,25,17.30
2013,05,03,11,26,17.30
2013,05,03,11,27,17.10
2013,05,03,11,28,17.00
2013,05,03,11,29,17.00
2013,05,03,11,30,17.00
2013,05,03,11,31,17.00
2013,05,03,11,32,17.10
2013,05,03,11,33,17.20
2013,05,03,11,34,17.30
2013,05,03,11,35,17.30
2013,05,03,11,36,17.40
2013,05,03,11,37,17.30
2013,05,03,11,38,17.20
2013,05,03,11,39,17.10
2013,05,03,11,40,17.10
2013,05,03,11,41,17.10
2013,05,03,11,42,17.10
2013,05,03,11,43,17.00
2013,05,03,11,44,17.00
2013,05,03,11,45,16.90
2013,05,03,11,46,17.00
2013,05,03,11,47,17.00
2013,05,03,11,48,17.10
2013,05,03,11,49,17.10
2013,05,03,11,50,17.20
2013,05,03,11,51,17.30
2013,05,03,11,52,17.30
2013,05,03,11,53,17.30
2013,05,03,11,54,17.30
2013,05,03,11,55,17.40
2013,05,03,11,56,17.40
2013,05,03,11,57,17.30
2013,05,03,11,58,17.40
2013,05,03,11,59,17.50
2013,05,03,12,00,17.60
2013,05,03,12,01,17.60
2013,05,03,12,02,17.60
2013,05,03,12,03,17.60
2013,05,03,12,04,17.70
2013,05,03,12,05,17.70
2013,05,03,12,06,17.70
2013,05,03,12,07,17.90
2013,05,03,12,08,18.00
2013,05,03,12,09,18.10
2013,05,03,12,10,18.10
2013,05,03,12,11,18.10
2013,05,03,12,12,18.00
2013,05,03,12,13,17.90
2013,05,03,12,14,18.10
2013,05,03,12,15,18.20
2013,05,03,12,16,18.20
2013,05,03,12,17,18.30
2013,05,03,12,18,18.40
2013,05,03,12,19,18.40
2013,05,03,12,20,18.30
2013,05,03,12,21,18.10
2013,05,03,12,22,17.90
2013,05,03,12,23,17.90
2013,05,03,12,24,17.80
2013,05,03,12,25,17.80
2013,05,03,12,26,17.60
2013,05,03,12,27,17.50
2013,05,03,12,28,17.50
2013,05,03,12,29,17.40
2013,05,03,12,30,17.30
2013,05,03,12,31,17.30
2013,05,03,12,32,17.30
2013,05,03,12,33,17.20
2013,05,03,12,34,17.10
2013,05,03,12,35,17.10
2013,05,03,12,36,17.10
2013,05,03,12,37,17.20
2013,05,03,12,38,17.30
2013,05,03,12,39,17.30
2013,05,03,12,40,17.40
2013,05,03,12,41,17.60
2013,05,03,12,42,17.70
2013,05,03,12,43,17.90
2013,05,03,12,44,18.10
2013,05,03,12,45,18.20
2013,05,03,12,46,18.30
2013,05,03,12,47,18.40
2013,05,03,12,48,18.30
2013,05,03,12,49,18.30
2013,05,03,12,50,18.40
2013,05,03,12,51,18.50
2013,05,03,12,52,18.50
2013,05,03,12,53,18.50
2013,05,03,12,54,18.40
2013,05,03,12,55,18.30
2013,05,03,12,56,18.20
2013,05,03,12,57,18.20
2013,05,03,12,58,18.20
2013,05,03,12,59,18.20
2013,05,03,13,00,18.20
2013,05,03,13,01,18.20
2013,05,03,13,02,18.20
2013,05,03,13,03,18.30
2013,05,03,13,04,18.40
2013,05,03,13,05,18.40
2013,05,03,13,06,18.40
2013,05,03,13,07,18.30
2013,05,03,13,08,18.20
2013,05,03,13,09,18.10
2013,05,03,13,10,18.00
2013,05,03,13,11,17.90
2013,05,03,13,12,17.90
2013,05,03,13,13,17.90
2013,05,03,13,14,17.90
2013,05,03,13,15,18.10
2013,05,03,13,16,18.20
2013,05,03,13,17,18.40
2013,05,03,13,18,18.40
2013,05,03,13,19,18.50
2013,05,03,13,20,18.60
2013,05,03,13,21,18.70
2013,05,03,13,22,18.70
2013,05,03,13,23,18.70
2013,05,03,13,24,18.50
2013,05,03,13,25,18.50
2013,05,03,13,26,18.50
2013,05,03,13,27,18.40
2013,05,03,13,28,18.50
2013,05,03,13,29,18.60
2013,05,03,13,30,18.60
2013,05,03,13,31,18.70
2013,05,03,13,32,18.70
2013,05,03,13,33,18.60
2013,05,03,13,34,18.70
2013,05,03,13,35,18.70
2013,05,03,13,36,18.70
2013,05,03,13,37,18.50
2013,05,03,13,38,18.30
2013,05,03,13,39,18.10
2013,05,03,13,40,17.90
2013,05,03,13,41,17.90
2013,05,03,13,42,18.00
2013,05,03,13,43,18.20
2013,05,03,13,44,18.30
2013,05,03,13,45,18.40
2013,05,03,13,46,18.40
2013,05,03,13,47,18.30
2013,05,03,13,48,18.30
2013,05,03,13,49,18.30
2013,05,03,13,50,18.40
2013,05,03,13,51,18.40
2013,05,03,13,52,18.40
2013,05,03,13,53,18.50
2013,05,03,13,54,18.60
2013,05,03,13,55,18.70
2013,05,03,13,56,18.70
2013,05,03,13,57,18.60
2013,05,03,13,58,18.60
2013,05,03,13,59,18.60
2013,05,03,14,00,18.60
2013,05,03,14,01,18.60
2013,05,03,14,02,18.60
2013,05,03,14,03,18.60
2013,05,03,14,04,18.50
2013,05,03,14,05,18.60
2013,05,03,14,06,18.70
2013,05,03,14,07,18.80
2013,05,03,14,08,18.90
2013,05,03,14,09,19.00
2013,05,03,14,10,19.10
2013,05,03,14,11,19.20
2013,05,03,14,12,19.30
2013,05,03,14,13,19.40
2013,05,03,14,14,19.30
2013,05,03,14,15,19.20
2013,05,03,14,16,19.10
2013,05,03,14,17,19.20
2013,05,03,14,18,19.30
2013,05,03,14,19,19.30
2013,05,03,14,20,19.30
2013,05,03,14,21,19.20
2013,05,03,14,22,19.20
2013,05,03,14,23,19.30
2013,05,03,14,24,19.40
2013,05,03,14,25,19.60
2013,05,03,14,26,19.70
2013,05,03,14,27,19.60
2013,05,03,14,28,19.60
2013,05,03,14,29,19.70
2013,05,03,14,30,19.80
2013,05,03,14,31,19.70
2013,05,03,14,32,19.80
2013,05,03,14,33,19.90
2013,05,03,14,34,20.00
2013,05,03,14,35,20.10
2013,05,03,14,36,20.20
2013,05,03,14,37,20.20
2013,05,03,14,38,20.20
2013,05,03,14,39,20.30
2013,05,03,14,40,20.30
2013,05,03,14,41,20.40
2013,05,03,14,42,20.50
2013,05,03,14,43,20.60
2013,05,03,14,44,20.60
2013,05,03,14,45,20.80
2013,05,03,14,46,20.90
2013,05,03,14,47,21.00
2013,05,03,14,48,21.10
2013,05,03,14,49,21.10
2013,05,03,14,50,21.10
2013,05,03,14,51,20.90
2013,05,03,14,52,20.80
2013,05,03,14,53,20.80
2013,05,03,14,54,20.80
2013,05,03,14,55,20.60
2013,05,03,14,56,20.40
2013,05,03,14,57,20.30
2013,05,03,14,58,20.40
2013,05,03,14,59,20.50
2013,05,03,15,00,20.50
2013,05,03,15,01,20.60
2013,05,03,15,02,20.70
2013,05,03,15,03,20.80
2013,05,03,15,04,20.90
2013,05,03,15,05,21.00
2013,05,03,15,06,21.10
2013,05,03,15,07,21.10
2013,05,03,15,08,21.20
2013,05,03,15,09,21.30
2013,05,03,15,10,21.30
2013,05,03,15,11,21.50
2013,05,03,15,12,21.60
2013,05,03,15,13,21.60
2013,05,03,15,14,21.50
2013,05,03,15,15,21.40
2013,05,03,15,16,21.40
2013,05,03,15,17,21.40
2013,05,03,15,18,21.50
2013,05,03,15,19,21.50
2013,05,03,15,20,21.40
2013,05,03,15,21,21.30
2013,05,03,15,22,21.30
2013,05,03,15,23,21.30
2013,05,03,15,24,21.30
2013,05,03,15,25,21.40
2013,05,03,15,26,21.50
2013,05,03,15,27,21.60
2013,05,03,15,28,21.80
2013,05,03,15,29,21.90
2013,05,03,15,30,21.90
2013,05,03,15,31,21.90
2013,05,03,15,32,21.90
2013,05,03,15,33,21.90
2013,05,03,15,34,21.90
2013,05,03,15,35,21.90
2013,05,03,15,36,22.00
2013,05,03,15,37,22.00
2013,05,03,15,38,22.10
2013,05,03,15,39,22.10
2013,05,03,15,40,22.10
2013,05,03,15,41,22.00
2013,05,03,15,42,21.80
2013,05,03,15,43,21.70
2013,05,03,15,44,21.60
2013,05,03,15,45,21.60
2013,05,03,15,46,21.50
2013,05,03,15,47,21.50
2013,05,03,15,48,21.60
2013,05,03,15,49,21.60
2013,05,03,15,50,21.60
2013,05,03,15,51,21.60
2013,05,03,15,52,21.70
2013,05,03,15,53,21.70
2013,05,03,15,54,21.70
2013,05,03,15,55,21.60
2013,05,03,15,56,21.50
2013,05,03,15,57,21.40
2013,05,03,15,58,21.30
2013,05,03,15,59,21.30
2013,05,03,16,00,21.30
2013,05,03,16,01,21.30
2013,05,03,16,02,21.40
2013,05,03,16,03,21.40
2013,05,03,16,04,21.60
2013,05,03,16,05,21.60
2013,05,03,16,06,21.60
2013,05,03,16,07,21.60
2013,05,03,16,08,21.70
2013,05,03,16,09,21.70
2013,05,03,16,10,21.70
2013,05,03,16,11,21.70
2013,05,03,16,12,21.70
2013,05,03,16,13,21.70
2013,05,03,16,14,21.70
2013,05,03,16,15,21.70
2013,05,03,16,16,21.70
2013,05,03,16,17,21.80
2013,05,03,16,18,21.80
2013,05,03,16,19,21.80
2013,05,03,16,20,21.80
2013,05,03,16,21,21.70
2013,05,03,16,22,21.70
2013,05,03,16,23,21.60
2013,05,03,16,24,21.60
2013,05,03,16,25,21.40
2013,05,03,16,26,21.30
2013,05,03,16,27,21.20
2013,05,03,16,28,21.20
2013,05,03,16,29,21.20
2013,05,03,16,30,21.20
2013,05,03,16,31,21.30
2013,05,03,16,32,21.40
2013,05,03,16,33,21.50
2013,05,03,16,34,21.60
2013,05,03,16,35,21.60
2013,05,03,16,36,21.50
2013,05,03,16,37,21.30
2013,05,03,16,38,21.30
2013,05,03,16,39,21.30
2013,05,03,16,40,21.40
2013,05,03,16,41,21.40
2013,05,03,16,42,21.50
2013,05,03,16,43,21.60
2013,05,03,16,44,21.60
2013,05,03,16,45,21.60
2013,05,03,16,46,21.60
2013,05,03,16,47,21.40
2013,05,03,16,48,21.30
2013,05,03,16,49,21.20
2013,05,03,16,50,21.20
2013,05,03,16,51,21.30
2013,05,03,16,52,21.30
2013,05,03,16,53,21.30
2013,05,03,16,54,21.30
2013,05,03,16,55,21.20
2013,05,03,16,56,21.00
2013,05,03,16,57,21.00
2013,05,03,16,58,21.00
2013,05,03,16,59,21.10
2013,05,03,17,00,21.20
2013,05,03,17,01,21.30
2013,05,03,17,02,21.30
2013,05,03,17,03,21.50
2013,05,03,17,04,21.60
2013,05,03,17,05,21.60
2013,05,03,17,06,21.60
2013,05,03,17,07,21.60
2013,05,03,17,08,21.60
2013,05,03,17,09,21.60
2013,05,03,17,10,21.60
2013,05,03,17,11,21.60
2013,05,03,17,12,21.50
2013,05,03,17,13,21.40
2013,05,03,17,14,21.30
2013,05,03,17,15,21.30
2013,05,03,17,16,21.30
2013,05,03,17,17,21.30
2013,05,03,17,18,21.40
2013,05,03,17,19,21.40
2013,05,03,17,20,21.40
2013,05,03,17,21,21.30
2013,05,03,17,22,21.30
2013,05,03,17,23,21.30
2013,05,03,17,24,21.30
2013,05,03,17,25,21.30
2013,05,03,17,26,21.30
2013,05,03,17,27,21.30
2013,05,03,17,28,21.30
2013,05,03,17,29,21.30
2013,05,03,17,30,21.30
2013,05,03,17,31,21.20
2013,05,03,17,32,21.20
2013,05,03,17,33,21.20
2013,05,03,17,34,21.20
2013,05,03,17,35,21.20
2013,05,03,17,36,21.20
2013,05,03,17,37,21.20
2013,05,03,17,38,21.20
2013,05,03,17,39,21.30
2013,05,03,17,40,21.30